STARLINK-32078, 60338

Orbit data source: Space-Track

STARLINK-32078, 60338 is a payload satellite owned by SpaceX/Seattle (US) in LEO that was launched on Fri, 02 Aug 2024 UTC via an FALCON 9 launch vehicle from the Air Force Eastern Test Range (AFETR). Payload-class satellites include a variety of spacecraft equipped with specific instruments for various scientific and technological missions. These include communications satellites like Starlink; space stations such as the ISS; scientific satellites like the Hubble; Earth observation satellites from companies like Planet Labs, Umbra, and HawkEye 360; GPS; miniature CubeSats for education and research; and military/defense satellites.

Loading next visibility...
Identifier
60338, 2024-136K
Orbit
LEO
Country
Flag of USUS
Related business
Manufacturer
SpaceX/Seattle
Mission
Operational Commercial Communications
Bus & Motor
STARLINK V2M, Unknown motor
Mass
730 kg wet, ~700 kg dry
Launch date (UTC)
2024-08-02 (2 years ago)
Launch vehicle
FALCON 9
Launch site
Air Force Eastern Test Range (AFETR)
Object type
Payload
Rocket body
Debris
Shape & HBR
Box + 2 Pan, 17.7 m
Radar Cross Section
33.884 m², Large (>1 m²)

Expand to show TLE details & history
Last TLE update: 23 hours ago

TLE from 23 hours ago
0 STARLINK-32078
1 60338U 24136K   26036.74969589  .00000586  00000-0  31915-4 0  9992
2 60338  53.1600 224.0766 0001258  96.2451 263.8693 15.30193959 84775
Epoch: 2026-02-05T17:59Z
TLE epoch observation values (Epoch: 2026-02-05T17:59:33.724Z)
Latitude
-0.00005°
Longitude
178.28859°
Altitude
476.225 km
Speed
7.629 km/s
True Right ascension
14h 56m 18s
True Declination
0° 00' 00"
Sunlit
Object was in daylight at epoch
Visualization orbit readout
Latitude
Unknown
Longitude
Unknown
Altitude
Unknown
Speed
Unknown
Apparent Right ascension
Unknown
Apparent Declination
Unknown
Sunlit
N/A
Visualization observer readout
Local Sidereal Time
19:15:25
Azimuth
Unknown
Elevation
Unknown
Doppler factor
Unknown
Orbital elements
Apogee altitude
476.352 km
Perigee altitude
474.627 km
Semi-major axis
6,853.627 km
Eccentricity
0.00013
Inclination
53.16°
RAAN
224.0766°
Arg. of periapsis
96.2451°
True anomaly
263.85497°
Mean anomaly
263.8693°
Eccentric anomaly
263.86213°
Mean motion
3.82527 °/min
Orbital period
94.11 mins
BSTAR
0.000031915
Loading maneuver chart data...
Computing Atmospheric mass density...
Loading historical data...
Loading historical data...
Loading historical data...
Loading historical data...
Loading historical data...
Loading historical data...
Loading historical data...

Documentation

Showing up to 5 results
|